Hourly Data Report for September 18, 2017

All times are specified in Local Standard Time (LST). Add 1 hour to adjust for Daylight Saving Time where and when it is observed.

PANGNIRTUNG
NUNAVUT

66°08'36.300" N
65°42'40.500" W
22.60 m
2403049
71826
WXP

Download Data

Hourly Data (September 2017)
Hourly Data Report for September 18, 2017
Temp Definition
°C
Dew Point Temp Definition
°C
Rel Hum Definition
%
Wind Dir Definition
10's deg

Wind Spd Definition
km/h
Visibility Definition
km
Stn Press Definition
kPa
Hmdx Definition


Wind Chill Definition


Weather Definition


TIME
00:00 1.1 -1.6 82 24 17   101.43     LegendNANA
01:00 0.3 -1.5 88 26 6   101.47     LegendNANA
02:00 0.3 -2.5 82 22 6   101.48     LegendNANA
03:00 -0.5 -2.8 84 13 1   101.50   -1 LegendNANA
04:00 -0.1 -2.8 82 22 4   101.51   -1 LegendNANA
05:00 -0.1 -2.2 86 19 2   101.53   -1 LegendNANA
06:00 -0.1 -2.5 84 13 6   101.55   -2 LegendNANA
07:00 1.1 -2.0 80 13 4   101.56     LegendNANA
08:00 2.0 -1.6 77 15 2   101.58     LegendNANA
09:00 1.8 -1.0 82 25 12   101.55     LegendNANA
10:00 2.1 -1.4 78 24 11   101.56     LegendNANA
11:00 2.2 -0.7 81 25 17   101.54     LegendNANA
12:00 2.9 -0.5 78 25 18   101.52     LegendNANA
13:00 2.8 -0.1 81 25 20   101.52     LegendNANA
14:00 2.5 -0.3 82 24 17   101.50     LegendNANA
15:00 3.0 -0.3 79 25 23   101.47     LegendNANA
16:00 2.6 -0.2 82 25 20   101.47     LegendNANA
17:00 3.1 -0.3 79 24 20   101.44     LegendNANA
18:00 2.5 -0.2 83 25 18   101.45     LegendNANA
19:00 2.7 -0.1 82 25 24   101.43     LegendNANA
20:00 1.5 -0.3 88 26 16   101.46     LegendNANA
21:00 2.2 0.2 87 25 15   101.44     LegendNANA
22:00 2.5 0.7 88 25 7   101.40     LegendNANA
23:00 3.6 0.6 81 24 7   101.37     LegendNANA

Notes on Data Quality.

Legend

  • E = Estimated
  • M = Missing
  • NA = Not Available
  • ‡ = Partner data that is not subject to review by the National Climate Archives
Date modified: